Flag for Chile Weather past 2 weeks in Santiago, Chile

Now
48 °F

Clear.


Feels Like: 48 °F
Forecast: 43 / 72 °F
Wind: 1 mph from North

Location: Pudahuel

Current Time: May 5, 2015 at 3:12:59 AM

Latest Report: May 5, 2015 at 3:00 AM


Visibility: 10 mi

Pressure: 30.07 "Hg

Humidity: 62%

Dew point: 36 °F

Location of SantiagoLocation

Historic Weather in Santiago — Graph

°F

Santiago temperature yesterday

Maximum temperature yesterday: 73 °F (at 4:00 PM)
Minimum temperature yesterday: 41 °F (at 5:00 AM)
Average temperature yesterday: 56 °F

Past Weeks' High & Low Weather Summary

 TemperatureHumidityPressure
High84 °F (Apr 23, 4:00 PM)94% (May 2, 7:00 AM)30.12 "Hg (May 2, 7:00 AM)
Low41 °F (May 4, 5:00 AM)12% (Apr 23, 4:00 PM)29.86 "Hg (Apr 28, 4:00 PM)
Average60 °F55%29.98 "Hg
* Reported Apr 20 2:00 AM — May 5 2:00 AM, Santiago, Weather by CustomWeather, © 2015

Note: Actual official high and low records may vary slightly from our data, if they occured in-between our weather recording intervals... More about our weather records

Advertising

Santiago weather history for previous 24 hours

 ConditionsComfort  
Time TempWeatherWind HumidityBarometerVisibility
2:00 AM
Tue, May 5
54 °FClear.2 mph51%30.07 "Hg10 mi
1:00 AM55 °FClear.6 mph51%30.04 "Hg10 mi
12:00 AM55 °FClear.7 mph51%30.04 "Hg10 mi
11:00 PM
Mon, May 4
59 °FClear.7 mph45%30.01 "Hg10 mi
10:00 PM61 °FClear.7 mph42%30.01 "Hg10 mi
9:00 PM63 °FPassing clouds.8 mph39%30.01 "HgN/A
8:00 PM66 °FPassing clouds.7 mph37%29.98 "HgN/A
7:00 PM68 °FClear.9 mph33%29.98 "Hg10 mi
6:00 PM72 °FClear.9 mph31%29.95 "Hg10 mi
5:00 PM72 °FSunny.12 mph31%29.95 "Hg10 mi
4:00 PM73 °FPassing clouds.6 mph27%29.95 "HgN/A
3:00 PM72 °FPassing clouds.8 mph29%29.95 "HgN/A
2:00 PM70 °FPassing clouds.5 mph33%29.98 "HgN/A
1:00 PM64 °FSunny.2 mph40%30.01 "Hg10 mi
12:00 PM59 °FSunny.2 mph48%30.01 "Hg10 mi
11:00 AM55 °FSunny.1 mph55%30.01 "Hg4 mi
10:00 AM46 °FSunny.2 mph76%30.04 "Hg3 mi
9:00 AM41 °FSunny.1 mph87%30.01 "Hg3 mi
8:00 AM43 °FSunny.No wind76%30.01 "Hg5 mi
7:00 AM41 °FClear.No wind87%30.01 "Hg5 mi
6:00 AM41 °FClear.3 mph87%30.01 "Hg4 mi
5:00 AM41 °FClear.2 mph81%30.01 "Hg10 mi
4:00 AM45 °FClear.1 mph76%30.04 "Hg10 mi
3:00 AM45 °FClear.No wind76%30.04 "Hg10 mi
Weather by CustomWeather, © 2015

See weather overviewHow to use our weather pages